EW4329 Weather Reports


Display with metric or nautical units.
time (UTC)temp
F
wind
direction
speed
MPH
gust
MPH
rain 1hr
in
rain 24hr
in
rain mn
in
humidity
%
barometer
mb
20260508003055 61 276 11.0 19.0 0.00 0.00 0.00 42 1008.3
20260508001541 62 258 11.0 16.0 0.00 0.00 0.00 42 1008.3
20260508000042 61 274 6.0 11.0 0.00 0.00 0.00 44 1008.3
20260507234539 61 300 10.0 15.0 0.00 0.00 0.00 44 1008.1
20260507233036 60 249 7.0 14.0 0.00 0.00 0.00 48 1008.1
20260507231531 59 286 9.0 13.0 0.00 0.00 0.00 47 1008.2
20260507230130 59 267 9.0 14.0 0.00 0.00 0.00 49 1008.1
20260507224533 59 270 8.0 10.0 0.00 0.00 0.00 49 1008.4
20260507223027 59 246 6.0 12.0 0.00 0.00 0.00 49 1008.2
20260507221528 59 277 4.0 11.0 0.00 0.00 0.00 51 1008.3
20260507220025 58 290 8.0 14.0 0.00 0.00 0.00 50 1008.4
20260507214523 59 242 6.0 12.0 0.00 0.00 0.00 47 1008.4
20260507213023 58 253 6.0 9.0 0.00 0.00 0.00 50 1008.6
20260507211521 58 254 5.0 10.0 0.00 0.00 0.00 49 1008.7
20260507210019 59 227 10.0 14.0 0.00 0.00 0.00 47 1008.9
20260507204518 58 267 7.0 14.0 0.00 0.00 0.00 48 1008.9
20260507203018 58 267 8.0 15.0 0.00 0.00 0.00 49 1008.9
20260507201520 58 266 10.0 15.0 0.00 0.00 0.00 49 1008.9
20260507200017 59 297 10.0 17.0 0.00 0.00 0.00 46 1008.9
20260507194516 59 241 9.0 16.0 0.00 0.00 0.00 47 1008.8
20260507193013 58 225 6.0 12.0 0.00 0.00 0.00 49 1008.8
20260507191511 58 252 4.0 8.0 0.00 0.00 0.00 48 1008.9
20260507190008 57 246 8.0 12.0 0.00 0.00 0.00 47 1009.2
20260507184511 55 253 3.0 11.0 0.00 0.00 0.00 52 1009.4
20260507183004 54 291 5.0 13.0 0.00 0.00 0.00 55 1009.9
20260507181503 54 262 9.0 15.0 0.00 0.00 0.00 53 1009.9
20260507180100 55 274 5.0 9.0 0.00 0.00 0.00 57 1009.9
20260507174559 55 281 5.0 7.0 0.00 0.00 0.00 55 1010.0
20260507173102 54 267 3.0 9.0 0.00 0.00 0.00 59 1010.1
20260507171559 54 305 7.0 10.0 0.00 0.00 0.00 56 1010.1
20260507170057 54 239 6.0 13.0 0.00 0.00 0.00 52 1010.1
20260507164556 55 246 10.0 0.0 0.00 0.00 0.00 49 1010.0
20260507163054 56 252 9.0 15.0 0.00 0.00 0.00 52 1009.9
20260507161550 55 280 6.0 12.0 0.00 0.00 0.00 56 1010.0
20260507160049 53 241 3.0 5.0 0.00 0.00 0.00 60 1010.3
20260507154547 53 359 3.0 7.0 0.00 0.00 0.00 63 1010.3
20260507153046 52 244 0.0 4.0 0.00 0.00 0.00 66 1010.4
20260507151546 51 201 2.0 5.0 0.00 0.00 0.00 68 1010.5
20260507150045 50 244 2.0 5.0 0.00 0.00 0.00 67 1010.6
20260507144543 50 265 5.0 7.0 0.00 0.00 0.00 70 1010.5
20260507143042 48 88 0.0 1.0 0.00 0.00 0.00 73 1010.6
20260507141541 47 88 0.0 2.0 0.00 0.00 0.00 76 1010.6
20260507140056 44 68 0.0 1.0 0.00 0.00 0.00 83 1010.7
20260507134540 40 68 0.0 1.0 0.00 0.00 0.00 87 1010.7
20260507133040 40 68 0.0 1.0 0.00 0.00 0.00 87 1010.7
20260507131545 39 78 1.0 3.0 0.00 0.00 0.00 87 1010.6
20260507130038 39 71 0.0 2.0 0.00 0.00 0.00 88 1010.3
20260507124537 38 58 1.0 4.0 0.00 0.00 0.00 89 1010.4
20260507123034 38 98 0.0 2.0 0.00 0.00 0.00 88 1010.5
20260507121532 38 97 0.0 1.0 0.00 0.00 0.00 87 1010.4
20260507120029 39 98 0.0 1.0 0.00 0.00 0.00 86 1010.3
20260507114526 40 353 0.0 2.0 0.00 0.00 0.00 86 1010.2
20260507113024 41 109 0.0 1.0 0.00 0.00 0.00 84 1010.2
20260507111522 41 113 0.0 2.0 0.00 0.00 0.00 84 1010.2
20260507110018 42 113 0.0 1.0 0.00 0.00 0.00 82 1010.2
20260507104524 44 113 0.0 1.0 0.00 0.00 0.00 79 1010.4
20260507103011 45 113 0.0 1.0 0.00 0.00 0.00 76 1010.5
20260507101510 48 113 1.0 2.0 0.00 0.00 0.00 72 1010.6
20260507100013 49 204 3.0 7.0 0.00 0.00 0.00 68 1010.9
20260507094505 50 201 6.0 10.0 0.00 0.00 0.00 69 1011.1
20260507093003 50 251 4.0 11.0 0.00 0.00 0.00 68 1011.4
20260507091507 53 276 14.0 29.0 0.00 0.00 0.00 58 1011.0
20260507090114 54 246 6.0 16.0 0.00 0.00 0.00 55 1010.2
20260507084556 54 229 9.0 18.0 0.00 0.00 0.00 54 1010.0
20260507083059 55 228 11.0 20.0 0.00 0.00 0.00 53 1010.0
20260507081555 54 225 12.0 18.0 0.00 0.00 0.00 52 1010.1
20260507080046 54 215 11.0 17.0 0.00 0.00 0.00 52 1010.3
20260507074543 53 232 10.0 16.0 0.00 0.00 0.00 53 1010.3
20260507073054 51 291 3.0 8.0 0.00 0.00 0.00 58 1010.6
20260507071539 51 260 5.0 9.0 0.00 0.00 0.00 58 1010.7
20260507070041 48 242 1.0 2.0 0.00 0.00 0.00 66 1010.7
20260507064534 47 83 1.0 2.0 0.00 0.00 0.00 68 1010.6
20260507063031 47 133 1.0 2.0 0.00 0.00 0.00 68 1010.6
20260507061532 48 110 0.0 1.0 0.00 0.00 0.00 67 1010.8
20260507060029 50 111 1.0 2.0 0.00 0.00 0.00 63 1011.0
20260507054524 51 102 1.0 1.0 0.00 0.00 0.00 61 1011.2
20260507053023 52 101 0.0 2.0 0.00 0.00 0.00 59 1011.2
20260507051523 53 235 0.0 3.0 0.00 0.00 0.00 56 1011.2
20260507050030 54 239 1.0 4.0 0.00 0.00 0.00 52 1011.4
20260507044534 55 177 2.0 4.0 0.00 0.00 0.00 51 1011.5
20260507043018 55 252 4.0 8.0 0.00 0.00 0.00 51 1011.9
20260507041518 55 258 1.0 4.0 0.00 0.00 0.00 50 1011.8
20260507040019 56 258 3.0 5.0 0.00 0.00 0.00 48 1011.6
20260507034516 57 232 4.0 9.0 0.00 0.00 0.00 46 1011.3
20260507033015 57 201 9.0 17.0 0.00 0.00 0.00 48 1011.5
20260507031514 58 238 7.0 18.0 0.00 0.00 0.00 49 1011.8
20260507030014 58 215 8.0 16.0 0.00 0.00 0.00 47 1011.7
20260507024513 58 232 10.0 14.0 0.00 0.00 0.00 47 1011.6
20260507023013 58 225 8.0 13.0 0.00 0.00 0.00 46 1011.7
20260507021509 58 204 7.0 16.0 0.00 0.00 0.00 47 1011.7
20260507020009 59 251 9.0 16.0 0.00 0.00 0.00 47 1012.0
20260507014508 59 234 8.0 17.0 0.00 0.00 0.00 46 1012.0
20260507013007 60 251 16.0 26.0 0.00 0.00 0.00 43 1012.3
20260507011506 61 245 8.0 16.0 0.00 0.00 0.00 41 1012.0
20260507010003 62 258 7.0 11.0 0.00 0.00 0.00 40 1012.2
20260507004602 62 254 8.0 12.0 0.00 0.00 0.00 39 1012.3